SCP
-0 0 0 0 0 0 0 0 0 0 0 0 0 0 0 0 0 0 0 0 0 0 0 0 0 0 0 0 0 0 0 0 0 0 0 0 0 0 0 0 0 0 0 0
-0 0 0 0 0 0 0 0 0 0 0 0 0 0 0 0 0 0 0 0 0 0 0 0 0 0 0 0 0 0 0 0 0 0 0 0 0 0 0 0 0 0 0 0
-0 -0 0 0 0 0 0 0 0 0 0 0 0 0 0 0 0 0 0 0 0 0 0 0 0 0 0 0 0 0 0 0 0 0 0 0 0 0 0 0 0 0 0 0
-0 -0 0 0 0 0 0 0 0 0 0 0 0 0 0 0 0 0 0 0 0 0 0 0 0 0 0 0 0 0 0 0 0 0 0 0 0 0 0 0 0 0 0 0
-0 -0 0 0 0 0 0 0 0 0 0 0 0 0 0 0 0 0 0 0 0 0 0 0 0 0 0 0 0 0 0 0 0 0 0 0 0 0 0 0 0 0 0 0
-0 -0 -0 0 0 0 0 0 0 0 0 0 0 0 0 0 0 0 0 0 0 0 0 0 0 0 0 0 0 0 0 0 0 0 0 0 0 0 0 0 0 0 0 0
0 -0 -0 -0 0 0 0 0 0 0 0 0 0 0 0 0 0 0 0 0 0 0 0 0 0 0 0 0 0 0 0 0 0 0 0 0 0 0 0 0 0 0 0 0
0 -0 -0 -0 0 0 0 0 0 0 0 0 0 0 0 0 0 0 0 0 0 0 0 0 0 0 0 0 0 0 0 0 0 0 0 0 0 0 0 0 0 0 0 0
0 0 -0 -0 -0 0 0 0 0 0 0 0 0 0 0 0 0 0 0 0 0 0 0 0 0 0 0 0 0 0 0 0 0 0 0 0 0 0 0 0 0 0 0 0
0 0 0 0 0 -0 0 0 0 0 0 0 0 0 0 0 0 0 0 0 0 0 0 0 0 0 0 0 0 0 0 0 0 0 0 0 0 0 0 0 0 0 0 0
0 0 0 0 0 0 0 0 0 0 0 0 0 0 0 0 0 0 0 0 0 0 0 0 0 0 0 0 0 0 0 0 0 0 0 0 0 0 0 0 0 0 0 0
0 0 0 0 0 0 0 0 0 0 0 0 0 0 0 0 0 0 0 0 0 0 0 0 0 0 0 0 0 0 0 0 0 0 0 0 0 0 0 0 0 0 0 0
0 0 0 0 0 0 0 0 0 0 0 0 0 0 0 0 0 0 0 0 0 0 0 0 0 0 0 0 0 0 0 0 0 0 0 0 0 0 0 0 0 0 0 0
0 0 0 0 0 0 0 0 0 0 0 0 0 0 0 0 0 0 0 0 0 0 0 0 0 0 0 0 0 0 0 0 0 0 0 0 0 0 0 0 0 0 0 0
0 0 0 0 0 0 0 0 0 0 0 0 0 0 0 0 0 0 0 0 0 0 0 0 0 0 0 0 0 0 0 0 0 0 0 0 0 0 0 0 0 0 0 0
0 0 0 0 0 0 0 0 0 0 0 0 0 0 0 0 0 0 0 0 0 0 0 0 0 0 0 0 0 0 0 0 0 0 0 0 0 0 0 0 0 0 0 0
0 0 0 0 0 0 0 0 0 0 0 0 0 0 0 0 0 0 0 0 0 0 0 0 0 0 0 0 0 0 0 0 0 0 0 0 0 0 0 0 0 0 0 0
0 0 0 0 0 0 0 0 0 0 0 0 0 0 0 0 0 0 0 0 0 0 0 0 0 0 0 0 0 0 0 0 0 0 0 0 0 0 0 0 0 0 0 0
0 0 0 0 0 0 0 0 0 0 0 0 0 0 0 0 0 0 0 0 0 0 0 0 0 0 0 0 0 0 0 0 0 0 0 0 0 0 0 0 0 0 0 0
0 0 0 0 0 0 0 0 0 0 0 0 0 0 0 0 0 0 0 0 0 0 0 0 0 0 0 0 0 0 0 0 0 0 0 0 0 0 0 0 0 0 0 0
0 0 0 0 0 0 0 0 0 0 0 0 0 0 0 0 0 0 0 0 0 0 0 0 0 0 0 0 0 0 0 0 0 0 0 0 0 0 0 0 0 0 0 0
0 0 0 0 0 0 0 0 0 0 0 0 0 0 0 0 0 0 0 0 0 0 0 0 0 0 0 0 0 0 0 0 0 0 0 0 0 0 0 0 0 0 0 0
0 0 0 0 0 0 0 0 0 0 0 0 0 0 0 0 0 0 0 0 0 0 0 0 0 0 0 0 0 0 0 0 0 0 0 0 0 0 0 0 0 0 0 0
0 0 0 0 0 0 0 0 0 0 0 0 0 0 0 0 0 0 0 0 0 0 0 0 0 0 0 0 0 0 0 0 0 0 0 0 0 0 0 0 0 0 0 0
0 0 0 0 0 0 0 0 0 0 0 0 0 0 0 0 0 0 0 0 0 0 0 0 0 0 0 0 0 0 0 0 0 0 0 0 0 0 0 0 0 0 0 0
0 0 0 0 0 0 0 0 0 0 0 0 0 0 0 0 0 0 0 0 0 0 0 0 0 0 0 0 0 0 0 0 0 0 0 0 0 0 0 0 0 0 0 0
0 0 0 0 0 0 0 0 0 0 0 0 0 0 0 0 0 0 0 0 0 0 0 0 0 0 0 0 0 0 0 0 0 0 0 0 0 0 0 0 0 0 0 0
Wind_Speed_500mb
43 41 17 32 105 139 137 60 12 117 117 25 14 28 14 10 9 7 8 10 10 21 29 12 16 24 11 53 26 17 6 10 8 9 2 1 0 10 9 13 13 4 7 11
32 40 34 39 111 141 79 46 31 97 115 29 32 8 8 6 9 10 10 9 9 10 23 12 8 15 8 36 28 22 15 1 7 6 6 3 9 8 7 10 6 12 11 11
23 32 33 22 34 79 87 34 15 33 66 24 40 28 28 9 4 5 9 11 10 16 14 6 16 9 5 13 30 33 27 7 14 20 12 15 12 12 10 9 5 7 13 12
17 30 33 28 25 65 70 15 16 44 41 35 43 35 30 14 13 3 13 6 16 18 11 8 12 9 8 4 16 19 11 11 7 5 5 5 11 26 30 21 34 18 26 20
6 20 28 30 26 52 35 17 21 32 35 53 49 40 34 32 11 13 8 16 13 8 17 15 17 16 8 12 2 11 3 6 5 6 10 1 1 13 26 44 22 34 7 14
5 10 27 27 29 30 16 16 46 56 46 42 42 49 44 39 23 12 12 27 14 10 7 16 22 13 25 22 19 10 15 13 7 11 4 5 11 25 29 22 30 20 26 36
7 7 24 23 25 30 30 23 26 28 24 40 42 43 29 38 12 17 7 17 11 22 62 60 50 56 45 31 18 7 13 13 5 6 4 8 16 9 33 35 18 34 5 8
11 9 16 24 25 21 26 26 14 12 16 32 10 45 18 33 26 10 10 8 30 48 21 11 11 8 9 10 11 10 3 10 7 11 8 10 8 10 15 17 30 21 36 16
15 16 13 26 25 16 13 23 24 21 20 17 18 33 42 25 12 7 6 40 57 15 7 7 9 9 9 5 4 8 6 9 7 6 12 20 3 9 16 14 23 14 33 22
16 18 18 20 26 20 12 19 19 20 18 11 44 25 36 24 13 10 9 18 5 6 6 6 4 6 2 13 16 11 5 4 16 7 8 15 14 5 12 16 11 7 5 17
20 18 19 20 22 20 11 31 20 17 19 24 27 21 22 24 30 18 21 15 4 5 8 7 6 6 11 7 10 15 19 18 10 5 3 25 19 11 19 8 10 15 18 14
20 20 18 18 20 21 16 25 31 38 24 29 51 39 32 37 26 37 32 5 16 15 7 5 7 4 3 11 11 3 9 11 11 19 12 6 33 5 13 14 19 17 18 16
18 16 16 13 14 18 20 27 36 47 40 26 20 38 40 28 26 48 18 18 18 19 16 9 6 8 8 8 8 7 7 7 5 7 8 7 25 15 20 18 17 19 13 10
17 12 14 14 12 16 21 27 22 30 18 9 10 26 31 33 25 34 15 34 31 31 20 9 4 6 8 6 5 6 7 20 11 4 5 3 15 24 26 21 16 13 10 7
19 16 14 14 15 16 18 23 19 18 10 9 8 29 27 28 26 28 29 42 47 31 9 5 4 6 7 2 3 3 11 11 9 8 20 7 9 35 25 19 17 13 13 11
18 16 14 14 15 21 21 8 13 17 27 15 5 9 15 26 29 34 33 31 23 14 11 5 7 5 2 6 5 9 17 11 7 9 28 15 24 22 22 18 12 9 7 9
17 15 14 13 11 24 9 6 15 25 19 12 6 5 8 26 26 20 23 22 18 12 10 6 6 5 6 5 4 6 21 18 23 29 29 17 19 11 13 12 10 10 13 19
17 17 14 14 11 11 13 3 21 36 17 11 7 2 5 15 9 8 8 9 10 11 8 6 5 7 5 3 15 12 26 23 20 19 13 12 10 7 10 14 18 21 23 23
15 18 18 16 11 4 14 16 38 31 10 10 7 8 7 16 10 9 7 7 5 4 4 1 8 1 7 12 23 32 36 27 25 20 11 12 16 18 22 24 24 26 28 30
13 19 8 7 10 11 35 20 17 11 5 7 5 11 5 15 8 4 7 5 5 4 5 13 5 7 23 20 25 29 25 22 22 20 23 31 33 33 35 36 34 34 36 39
12 7 3 7 24 24 11 10 8 7 4 12 11 9 11 10 6 5 2 4 1 5 6 8 4 8 4 25 37 38 30 28 29 32 35 31 28 30 29 26 22 23 25 29
13 6 6 11 13 10 5 6 8 6 12 11 9 16 16 14 12 7 5 6 4 8 10 6 5 6 5 17 28 36 33 33 35 35 38 41 40 37 34 33 33 32 31 30
14 2 1 3 5 7 10 8 2 5 5 26 26 9 16 12 8 11 6 7 6 13 5 7 8 5 10 20 21 22 23 26 31 33 33 29 28 29 32 33 36 37 36 34
6 5 5 4 5 3 2 5 6 3 5 37 48 14 7 9 6 4 9 4 6 5 5 12 4 20 26 25 25 19 16 14 14 14 15 17 17 18 19 20 23 27 29 32
9 8 4 2 2 5 3 4 4 2 34 38 22 17 11 5 9 5 7 6 4 9 10 6 15 32 31 33 32 31 29 25 21 15 9 4 5 9 15 18 21 24 26 26
6 5 7 1 3 5 9 7 5 2 43 30 15 7 8 1 8 7 10 15 13 8 7 9 33 32 29 28 26 22 18 13 8 4 6 12 16 21 25 31 37 39 39 40
5 5 13 8 8 1 7 5 6 7 6 5 7 8 8 6 7 2 8 10 7 7 18 28 30 26 21 15 8 4 1 3 5 8 13 17 23 29 34 35 38 42 45 48
Wind_Direction_500mb
338 360 94 169 178 180 165 162 136 166 168 164 180 193 170 138 151 157 126 114 111 162 162 134 167 183 190 189 148 154 129 116 146 196 238 292 61 238 164 185 208 199 159 259
355 351 19 123 158 165 152 137 121 163 168 178 184 167 154 98 145 155 155 130 144 156 162 134 163 176 169 180 174 160 175 158 97 39 2 158 197 210 174 108 74 195 153 252
3 353 16 58 93 161 153 139 133 152 183 192 171 166 181 125 53 126 119 119 108 113 159 69 171 132 153 174 193 177 137 160 166 190 193 137 187 188 188 137 160 171 221 228
347 15 357 22 114 150 157 142 155 168 176 192 180 179 172 143 151 191 155 83 158 141 129 105 142 130 123 71 152 146 150 201 134 49 357 118 168 184 187 198 215 194 237 210
334 7 6 7 58 152 138 131 158 167 167 167 172 179 199 172 144 146 181 136 139 138 152 180 176 132 160 170 138 141 121 238 110 12 347 74 306 198 188 220 218 238 347 250
47 360 30 16 28 100 97 102 152 157 161 170 177 192 182 174 135 15 143 132 108 85 119 101 123 130 140 150 151 143 138 130 116 231 334 73 305 207 210 218 218 212 222 239
106 91 42 36 30 61 83 87 136 150 166 175 182 175 168 161 172 124 37 107 98 133 112 99 84 71 64 62 44 97 133 111 94 162 44 199 263 177 207 208 213 214 209 142
145 95 69 60 49 60 68 46 107 113 151 161 120 160 146 122 110 86 105 73 127 137 113 75 72 11 38 13 31 15 46 128 119 148 201 295 243 212 151 176 245 210 224 201
131 114 96 81 73 73 67 45 62 97 122 185 138 150 159 151 121 89 84 130 147 133 82 87 133 165 157 207 38 358 50 70 122 131 164 219 217 191 164 112 264 224 209 191
121 130 111 111 103 98 88 82 66 77 96 52 153 164 160 139 129 99 124 134 133 79 88 75 108 173 231 165 173 161 123 68 201 168 224 284 251 219 151 154 245 135 156 199
152 131 127 120 114 118 141 74 107 97 90 64 120 128 139 145 156 156 157 109 62 54 134 145 155 148 200 161 165 178 169 161 199 113 115 251 174 114 169 202 122 139 130 142
135 151 134 126 124 122 123 83 89 112 82 98 97 111 116 147 158 157 157 127 121 150 115 159 125 161 130 160 192 267 198 188 180 184 206 209 180 175 186 156 150 147 131 128
133 127 147 145 127 120 129 117 95 106 101 79 82 86 94 122 150 165 133 152 143 166 145 151 154 160 136 166 229 105 251 192 178 98 200 204 181 172 162 151 152 142 138 151
156 151 129 148 163 118 119 135 114 114 107 93 62 98 89 89 109 172 145 150 131 133 111 77 108 129 195 194 160 151 195 144 166 293 304 151 206 188 174 164 168 175 187 225
133 130 143 139 145 151 137 130 125 93 103 123 91 90 86 93 97 129 133 148 140 135 109 104 169 134 121 351 76 273 192 172 168 217 184 154 176 202 206 218 217 223 239 249
129 132 128 146 147 150 151 107 162 106 105 98 82 81 84 102 118 116 120 133 117 92 94 110 108 125 125 110 186 265 189 171 137 155 156 129 137 156 186 200 208 225 253 283
126 132 135 133 168 156 105 104 150 143 111 90 91 49 102 125 116 99 91 94 81 82 98 71 118 112 103 93 173 247 178 146 127 133 126 120 146 149 177 196 210 233 257 262
122 133 138 133 160 183 193 121 149 162 133 74 103 75 121 138 82 72 87 77 83 54 95 107 104 100 64 241 240 169 161 167 164 168 178 151 156 192 220 229 239 246 255 266
117 135 146 149 162 102 171 127 154 157 112 112 96 133 179 138 97 106 88 91 61 77 84 231 137 232 219 214 190 179 172 164 166 169 191 244 260 259 251 247 253 266 276 278
155 149 126 146 135 155 150 149 155 158 137 118 99 129 134 144 123 86 107 69 129 143 232 135 108 248 227 169 179 187 196 219 232 235 243 250 253 256 261 266 275 282 288 284
153 127 136 125 145 157 208 165 156 119 93 167 133 138 128 145 105 126 81 158 108 112 238 136 256 273 227 215 223 223 219 224 234 252 257 257 257 268 272 270 277 284 291 294
152 93 139 154 182 215 206 175 127 143 198 161 131 146 121 134 134 103 168 125 76 194 147 112 250 239 156 161 188 206 220 228 236 243 248 254 262 271 281 287 292 295 299 296
149 86 129 182 243 211 193 146 51 154 184 163 155 118 129 125 127 80 106 101 188 126 145 210 229 178 151 154 163 179 199 214 227 236 246 256 270 281 287 292 294 294 294 290
128 121 330 226 230 288 315 179 163 192 221 156 141 114 123 124 80 136 106 214 85 79 159 228 241 163 147 147 155 156 166 183 202 225 244 262 274 281 288 290 289 287 285 283
148 147 194 256 306 296 333 315 326 185 144 142 112 73 90 21 99 52 103 68 184 197 219 231 163 156 145 139 139 135 130 130 126 121 110 63 342 319 309 307 303 301 301 300
118 106 90 54 80 336 3 33 60 59 143 135 79 91 66 47 126 95 197 128 204 230 212 161 152 151 141 136 131 127 126 135 149 203 272 289 294 297 298 296 292 288 288 292
84 37 82 88 64 2 333 355 23 148 148 105 108 96 177 100 69 59 197 189 209 146 140 146 149 150 144 140 125 111 206 252 257 282 296 301 303 305 305 302 293 290 290 290
Wind_Speed_850mb
43 41 17 32 105 139 137 60 12 117 117 25 14 28 14 10 9 7 8 10 10 21 29 12 16 24 11 53 26 17 6 10 8 9 2 1 0 10 9 13 13 4 7 11
32 40 34 39 111 141 79 46 31 97 115 29 32 8 8 6 9 10 10 9 9 10 23 12 8 15 8 36 28 22 15 1 7 6 6 3 9 8 7 10 6 12 11 11
23 32 33 22 34 79 87 34 15 33 66 24 40 28 28 9 4 5 9 11 10 16 14 6 16 9 5 13 30 33 27 7 14 20 12 15 12 12 10 9 5 7 13 12
17 30 33 28 25 65 70 15 16 44 41 35 43 35 30 14 13 3 13 6 16 18 11 8 12 9 8 4 16 19 11 11 7 5 5 5 11 26 30 21 34 18 26 20
6 20 28 30 26 52 35 17 21 32 35 53 49 40 34 32 11 13 8 16 13 8 17 15 17 16 8 12 2 11 3 6 5 6 10 1 1 13 26 44 22 34 7 14
5 10 27 27 29 30 16 16 46 56 46 42 42 49 44 39 23 12 12 27 14 10 7 16 22 13 25 22 19 10 15 13 7 11 4 5 11 25 29 22 30 20 26 36
7 7 24 23 25 30 30 23 26 28 24 40 42 43 29 38 12 17 7 17 11 22 62 60 50 56 45 31 18 7 13 13 5 6 4 8 16 9 33 35 18 34 5 8
11 9 16 24 25 21 26 26 14 12 16 32 10 45 18 33 26 10 10 8 30 48 21 11 11 8 9 10 11 10 3 10 7 11 8 10 8 10 15 17 30 21 36 16
15 16 13 26 25 16 13 23 24 21 20 17 18 33 42 25 12 7 6 40 57 15 7 7 9 9 9 5 4 8 6 9 7 6 12 20 3 9 16 14 23 14 33 22
16 18 18 20 26 20 12 19 19 20 18 11 44 25 36 24 13 10 9 18 5 6 6 6 4 6 2 13 16 11 5 4 16 7 8 15 14 5 12 16 11 7 5 17
20 18 19 20 22 20 11 31 20 17 19 24 27 21 22 24 30 18 21 15 4 5 8 7 6 6 11 7 10 15 19 18 10 5 3 25 19 11 19 8 10 15 18 14
20 20 18 18 20 21 16 25 31 38 24 29 51 39 32 37 26 37 32 5 16 15 7 5 7 4 3 11 11 3 9 11 11 19 12 6 33 5 13 14 19 17 18 16
18 16 16 13 14 18 20 27 36 47 40 26 20 38 40 28 26 48 18 18 18 19 16 9 6 8 8 8 8 7 7 7 5 7 8 7 25 15 20 18 17 19 13 10
17 12 14 14 12 16 21 27 22 30 18 9 10 26 31 33 25 34 15 34 31 31 20 9 4 6 8 6 5 6 7 20 11 4 5 3 15 24 26 21 16 13 10 7
19 16 14 14 15 16 18 23 19 18 10 9 8 29 27 28 26 28 29 42 47 31 9 5 4 6 7 2 3 3 11 11 9 8 20 7 9 35 25 19 17 13 13 11
18 16 14 14 15 21 21 8 13 17 27 15 5 9 15 26 29 34 33 31 23 14 11 5 7 5 2 6 5 9 17 11 7 9 28 15 24 22 22 18 12 9 7 9
17 15 14 13 11 24 9 6 15 25 19 12 6 5 8 26 26 20 23 22 18 12 10 6 6 5 6 5 4 6 21 18 23 29 29 17 19 11 13 12 10 10 13 19
17 17 14 14 11 11 13 3 21 36 17 11 7 2 5 15 9 8 8 9 10 11 8 6 5 7 5 3 15 12 26 23 20 19 13 12 10 7 10 14 18 21 23 23
15 18 18 16 11 4 14 16 38 31 10 10 7 8 7 16 10 9 7 7 5 4 4 1 8 1 7 12 23 32 36 27 25 20 11 12 16 18 22 24 24 26 28 30
13 19 8 7 10 11 35 20 17 11 5 7 5 11 5 15 8 4 7 5 5 4 5 13 5 7 23 20 25 29 25 22 22 20 23 31 33 33 35 36 34 34 36 39
12 7 3 7 24 24 11 10 8 7 4 12 11 9 11 10 6 5 2 4 1 5 6 8 4 8 4 25 37 38 30 28 29 32 35 31 28 30 29 26 22 23 25 29
13 6 6 11 13 10 5 6 8 6 12 11 9 16 16 14 12 7 5 6 4 8 10 6 5 6 5 17 28 36 33 33 35 35 38 41 40 37 34 33 33 32 31 30
14 2 1 3 5 7 10 8 2 5 5 26 26 9 16 12 8 11 6 7 6 13 5 7 8 5 10 20 21 22 23 26 31 33 33 29 28 29 32 33 36 37 36 34
6 5 5 4 5 3 2 5 6 3 5 37 48 14 7 9 6 4 9 4 6 5 5 12 4 20 26 25 25 19 16 14 14 14 15 17 17 18 19 20 23 27 29 32
9 8 4 2 2 5 3 4 4 2 34 38 22 17 11 5 9 5 7 6 4 9 10 6 15 32 31 33 32 31 29 25 21 15 9 4 5 9 15 18 21 24 26 26
6 5 7 1 3 5 9 7 5 2 43 30 15 7 8 1 8 7 10 15 13 8 7 9 33 32 29 28 26 22 18 13 8 4 6 12 16 21 25 31 37 39 39 40
5 5 13 8 8 1 7 5 6 7 6 5 7 8 8 6 7 2 8 10 7 7 18 28 30 26 21 15 8 4 1 3 5 8 13 17 23 29 34 35 38 42 45 48
Wind_Direction_850mb
338 360 94 169 178 180 165 162 136 166 168 164 180 193 170 138 151 157 126 114 111 162 162 134 167 183 190 189 148 154 129 116 146 196 238 292 61 238 164 185 208 199 159 259
355 351 19 123 158 165 152 137 121 163 168 178 184 167 154 98 145 155 155 130 144 156 162 134 163 176 169 180 174 160 175 158 97 39 2 158 197 210 174 108 74 195 153 252
3 353 16 58 93 161 153 139 133 152 183 192 171 166 181 125 53 126 119 119 108 113 159 69 171 132 153 174 193 177 137 160 166 190 193 137 187 188 188 137 160 171 221 228
347 15 357 22 114 150 157 142 155 168 176 192 180 179 172 143 151 191 155 83 158 141 129 105 142 130 123 71 152 146 150 201 134 49 357 118 168 184 187 198 215 194 237 210
334 7 6 7 58 152 138 131 158 167 167 167 172 179 199 172 144 146 181 136 139 138 152 180 176 132 160 170 138 141 121 238 110 12 347 74 306 198 188 220 218 238 347 250
47 360 30 16 28 100 97 102 152 157 161 170 177 192 182 174 135 15 143 132 108 85 119 101 123 130 140 150 151 143 138 130 116 231 334 73 305 207 210 218 218 212 222 239
106 91 42 36 30 61 83 87 136 150 166 175 182 175 168 161 172 124 37 107 98 133 112 99 84 71 64 62 44 97 133 111 94 162 44 199 263 177 207 208 213 214 209 142
145 95 69 60 49 60 68 46 107 113 151 161 120 160 146 122 110 86 105 73 127 137 113 75 72 11 38 13 31 15 46 128 119 148 201 295 243 212 151 176 245 210 224 201
131 114 96 81 73 73 67 45 62 97 122 185 138 150 159 151 121 89 84 130 147 133 82 87 133 165 157 207 38 358 50 70 122 131 164 219 217 191 164 112 264 224 209 191
121 130 111 111 103 98 88 82 66 77 96 52 153 164 160 139 129 99 124 134 133 79 88 75 108 173 231 165 173 161 123 68 201 168 224 284 251 219 151 154 245 135 156 199
152 131 127 120 114 118 141 74 107 97 90 64 120 128 139 145 156 156 157 109 62 54 134 145 155 148 200 161 165 178 169 161 199 113 115 251 174 114 169 202 122 139 130 142
135 151 134 126 124 122 123 83 89 112 82 98 97 111 116 147 158 157 157 127 121 150 115 159 125 161 130 160 192 267 198 188 180 184 206 209 180 175 186 156 150 147 131 128
133 127 147 145 127 120 129 117 95 106 101 79 82 86 94 122 150 165 133 152 143 166 145 151 154 160 136 166 229 105 251 192 178 98 200 204 181 172 162 151 152 142 138 151
156 151 129 148 163 118 119 135 114 114 107 93 62 98 89 89 109 172 145 150 131 133 111 77 108 129 195 194 160 151 195 144 166 293 304 151 206 188 174 164 168 175 187 225
133 130 143 139 145 151 137 130 125 93 103 123 91 90 86 93 97 129 133 148 140 135 109 104 169 134 121 351 76 273 192 172 168 217 184 154 176 202 206 218 217 223 239 249
129 132 128 146 147 150 151 107 162 106 105 98 82 81 84 102 118 116 120 133 117 92 94 110 108 125 125 110 186 265 189 171 137 155 156 129 137 156 186 200 208 225 253 283
126 132 135 133 168 156 105 104 150 143 111 90 91 49 102 125 116 99 91 94 81 82 98 71 118 112 103 93 173 247 178 146 127 133 126 120 146 149 177 196 210 233 257 262
122 133 138 133 160 183 193 121 149 162 133 74 103 75 121 138 82 72 87 77 83 54 95 107 104 100 64 241 240 169 161 167 164 168 178 151 156 192 220 229 239 246 255 266
117 135 146 149 162 102 171 127 154 157 112 112 96 133 179 138 97 106 88 91 61 77 84 231 137 232 219 214 190 179 172 164 166 169 191 244 260 259 251 247 253 266 276 278
155 149 126 146 135 155 150 149 155 158 137 118 99 129 134 144 123 86 107 69 129 143 232 135 108 248 227 169 179 187 196 219 232 235 243 250 253 256 261 266 275 282 288 284
153 127 136 125 145 157 208 165 156 119 93 167 133 138 128 145 105 126 81 158 108 112 238 136 256 273 227 215 223 223 219 224 234 252 257 257 257 268 272 270 277 284 291 294
152 93 139 154 182 215 206 175 127 143 198 161 131 146 121 134 134 103 168 125 76 194 147 112 250 239 156 161 188 206 220 228 236 243 248 254 262 271 281 287 292 295 299 296
149 86 129 182 243 211 193 146 51 154 184 163 155 118 129 125 127 80 106 101 188 126 145 210 229 178 151 154 163 179 199 214 227 236 246 256 270 281 287 292 294 294 294 290
128 121 330 226 230 288 315 179 163 192 221 156 141 114 123 124 80 136 106 214 85 79 159 228 241 163 147 147 155 156 166 183 202 225 244 262 274 281 288 290 289 287 285 283
148 147 194 256 306 296 333 315 326 185 144 142 112 73 90 21 99 52 103 68 184 197 219 231 163 156 145 139 139 135 130 130 126 121 110 63 342 319 309 307 303 301 301 300
118 106 90 54 80 336 3 33 60 59 143 135 79 91 66 47 126 95 197 128 204 230 212 161 152 151 141 136 131 127 126 135 149 203 272 289 294 297 298 296 292 288 288 292
84 37 82 88 64 2 333 355 23 148 148 105 108 96 177 100 69 59 197 189 209 146 140 146 149 150 144 140 125 111 206 252 257 282 296 301 303 305 305 302 293 290 290 290